Wind_Speed
6 5 12 20 10 7 8 7 10 4 3 5 7 5 5 6 10 12 19 22 20 20 20 20 18 16 16 14 13 12 11 11 10 9 8 9 10 12 14 15 16 16 16 16
6 14 10 5 11 10 6 13 7 2 2 4 4 7 6 7 7 19 22 22 21 21 21 20 20 18 16 15 13 12 12 10 10 9 10 11 11 11 12 12 13 13 13 13
15 1 11 14 12 13 10 8 6 4 4 2 5 5 4 4 5 11 15 18 20 22 22 21 20 19 17 16 14 13 12 12 11 10 9 9 9 9 9 9 10 9 9 9
9 6 11 6 10 10 15 8 6 8 9 5 1 4 5 5 6 5 14 19 22 22 20 20 19 18 16 15 13 12 11 9 9 8 8 8 7 6 4 2 3 5 7 8
1 8 8 9 8 11 4 9 11 9 9 6 3 2 4 5 5 5 9 17 20 20 18 19 18 17 17 14 13 12 10 9 6 4 4 4 5 4 3 3 4 5 6 8
3 9 9 9 6 11 8 8 6 3 2 5 12 11 5 6 6 4 6 14 21 22 21 19 18 18 18 15 13 12 10 10 10 8 7 6 5 6 5 4 4 5 8 9
2 4 3 17 10 11 5 9 1 2 3 2 5 8 4 2 2 7 12 19 24 24 24 23 20 16 18 17 14 14 15 13 12 10 7 6 5 5 3 3 4 5 6 7
5 3 4 3 5 6 8 5 4 5 5 3 4 5 3 3 6 18 21 22 20 23 25 25 23 19 18 21 17 8 12 11 9 7 5 5 4 4 4 5 5 6 8 11
4 3 2 1 4 9 3 5 2 5 3 3 3 3 1 2 5 17 25 27 22 20 26 25 24 19 13 19 11 6 4 4 6 5 4 4 4 4 4 4 6 8 10 13
1 1 2 1 7 8 5 5 4 3 4 2 2 3 3 6 8 8 12 23 29 26 25 25 21 16 9 7 9 11 10 7 5 4 4 3 3 3 3 5 7 10 14 17
5 2 1 6 0 5 6 4 4 4 1 3 3 4 3 8 11 14 18 23 33 32 22 18 16 17 19 17 14 12 8 4 3 2 1 2 2 2 4 7 11 15 18 20
3 2 2 2 1 4 3 5 4 3 4 1 1 3 1 3 12 19 22 33 31 25 18 19 22 23 21 16 12 9 7 5 4 1 1 1 1 4 8 12 16 18 18 19
8 3 3 3 2 4 4 4 4 4 3 1 2 3 2 2 9 25 27 31 34 31 26 27 29 28 22 19 16 13 10 7 5 4 2 1 5 9 13 16 16 16 15 15
10 3 2 2 2 3 5 5 3 4 3 4 3 3 6 5 8 11 19 25 28 27 28 30 30 27 24 19 16 13 10 7 5 3 3 4 8 12 13 14 13 13 13 14
4 5 3 3 2 3 7 12 6 3 6 4 6 6 4 5 7 17 24 26 28 32 34 34 32 28 23 20 16 12 9 8 7 6 4 7 10 12 12 12 12 12 12 13
0 5 5 2 5 9 3 7 4 4 3 3 4 4 3 5 12 12 21 28 33 35 33 31 27 24 22 19 16 13 11 9 7 5 7 9 11 11 10 10 11 12 14 14
4 6 4 1 3 6 3 13 13 4 5 7 5 6 6 4 11 21 26 33 36 35 31 27 24 22 21 19 16 13 10 9 8 8 9 10 10 11 11 11 12 13 13 15
7 4 2 2 2 2 2 2 3 4 5 6 2 8 10 13 13 15 18 28 30 29 27 24 23 21 21 19 16 13 11 10 9 10 10 10 11 11 12 12 13 14 14 14
3 5 4 5 3 2 2 5 7 8 8 5 4 7 9 12 10 6 11 15 17 20 21 22 22 21 20 18 15 13 12 10 10 11 11 11 12 13 13 13 13 14 15 16
5 8 4 2 5 6 4 4 7 3 4 11 11 13 15 14 4 3 11 12 13 13 14 16 18 18 17 16 14 11 10 10 11 12 12 13 13 13 13 13 14 15 16 16
3 4 4 1 2 6 4 1 6 6 5 3 16 21 19 4 4 7 11 10 11 11 12 14 15 15 15 14 11 10 11 13 14 13 13 13 14 14 14 15 16 17 17 17
3 4 2 3 4 3 4 2 6 2 1 9 15 16 15 9 10 12 11 10 9 9 11 12 13 13 12 11 11 12 14 15 14 12 13 14 14 15 16 17 17 18 17 17
1 3 3 4 4 1 6 1 1 7 13 14 19 17 15 14 11 10 9 8 8 8 10 11 13 12 11 12 14 15 16 15 14 14 14 15 17 17 17 17 18 18 18 18
1 2 2 3 1 2 6 3 7 12 13 15 17 16 11 10 9 8 7 7 8 10 12 13 14 13 13 15 16 17 17 16 15 16 16 17 18 17 18 18 18 17 16 17
2 2 2 1 2 2 5 5 9 10 12 13 12 9 6 4 5 5 7 8 9 12 14 16 16 16 15 18 18 19 19 19 18 19 19 20 19 19 18 17 17 16 16 17
7 5 3 3 4 1 4 13 13 14 12 10 7 6 6 6 8 9 10 10 13 15 16 19 19 19 17 20 21 22 22 21 21 22 22 21 20 18 17 16 16 15 16 17
Wind_Direction
199 206 199 202 212 215 172 174 193 178 196 149 206 236 245 187 201 202 200 192 189 188 194 195 199 204 207 208 214 215 215 218 224 233 243 256 266 277 286 291 295 298 303 307
177 224 207 164 192 218 207 200 173 45 195 145 194 249 248 177 218 211 199 196 193 193 194 197 201 206 214 214 217 220 223 228 233 243 252 260 267 270 276 285 292 300 307 315
206 76 167 181 176 178 199 198 168 154 182 81 128 287 202 218 218 209 204 203 199 204 197 196 201 206 210 217 214 218 222 228 238 249 251 254 260 264 270 280 293 308 322 331
219 131 168 177 181 179 209 185 208 154 175 194 156 261 232 190 196 184 192 191 200 200 195 194 194 196 196 201 205 209 212 217 222 233 252 257 245 234 232 273 324 345 348 349
85 173 187 188 188 176 206 164 181 178 192 140 212 192 256 141 199 198 194 190 189 189 187 181 179 181 178 182 186 187 194 206 214 194 166 146 145 122 97 54 26 6 359 358
273 298 212 189 164 171 135 88 48 63 144 221 189 196 226 185 182 151 149 172 168 168 166 164 163 164 163 165 172 175 161 151 136 125 118 116 97 83 68 42 20 4 3 3
350 242 267 150 123 154 129 137 121 170 187 207 348 200 211 175 145 169 153 152 157 157 154 151 147 150 151 145 140 148 144 140 132 124 114 98 81 77 55 32 19 20 21 13
177 174 218 205 144 164 158 154 166 177 178 136 352 221 213 279 128 139 141 144 144 147 143 139 135 140 138 132 125 151 132 133 118 107 92 70 57 42 29 27 29 24 11 0
168 240 301 224 106 154 159 165 108 113 57 110 188 278 323 90 91 129 137 141 139 153 141 136 134 130 133 120 123 150 130 127 118 111 99 76 47 36 27 26 17 3 353 341
76 226 342 173 92 27 137 143 79 3 132 217 249 266 235 199 165 141 140 139 147 146 136 134 138 136 179 152 184 186 186 176 141 114 89 59 39 20 17 10 346 335 334 329
178 314 293 171 119 169 133 153 89 116 100 147 143 247 193 190 178 165 158 153 153 152 149 154 146 168 167 175 186 186 168 156 138 119 97 40 11 357 351 335 329 330 328 328
134 205 176 52 263 262 97 146 143 119 199 262 111 269 257 195 175 168 163 164 171 170 166 174 182 180 180 177 186 182 182 187 184 144 23 7 322 330 330 327 327 327 326 327
153 207 127 118 42 19 137 128 113 122 90 271 109 255 218 185 167 180 180 185 187 190 188 183 182 183 177 189 193 195 196 195 196 202 219 311 327 324 321 320 323 325 329 331
138 96 6 174 97 131 128 142 136 105 109 145 249 268 220 200 172 169 181 189 188 190 186 182 186 182 187 192 198 199 199 198 209 217 228 291 310 313 316 317 322 324 329 332
134 124 101 353 292 102 132 164 155 115 145 138 226 211 195 202 198 178 180 183 182 178 180 184 186 188 193 199 201 200 201 206 209 212 256 298 305 309 312 316 320 324 331 334
228 133 113 30 325 138 119 165 163 136 154 282 191 250 187 143 157 162 170 168 172 179 183 189 192 199 205 205 204 202 206 210 211 239 280 290 300 302 310 318 325 331 331 332
121 131 131 153 307 106 112 198 184 165 168 174 174 217 158 136 150 168 177 181 184 187 189 195 204 211 209 209 208 207 207 212 227 260 281 294 299 311 317 320 324 324 326 329
123 104 53 147 258 72 238 27 120 227 217 207 157 163 162 155 141 146 175 191 194 198 205 215 223 219 215 213 210 211 213 221 248 272 288 295 305 311 311 315 318 319 319 325
130 116 101 154 153 320 14 189 179 177 240 205 178 129 143 145 131 144 167 180 194 208 219 229 232 224 216 210 209 214 220 239 265 285 290 297 302 301 302 305 311 316 323 328
110 64 107 84 119 175 207 200 176 131 300 190 172 160 153 151 147 241 189 196 207 213 215 215 206 201 199 202 209 220 242 264 278 280 284 291 295 296 301 309 315 321 321 324
35 18 119 136 122 289 244 182 124 101 240 173 183 165 158 152 174 168 172 175 178 182 181 179 184 190 196 204 216 239 259 272 275 277 287 294 295 300 309 314 317 318 321 322
131 125 169 78 69 291 170 101 156 228 101 158 169 170 165 155 145 147 154 162 165 172 176 182 191 199 206 219 242 258 266 270 269 277 288 292 302 305 307 311 316 316 315 319
79 173 175 169 201 322 174 307 246 146 135 130 134 139 138 132 140 146 156 171 185 195 203 205 207 214 227 247 257 268 272 268 270 280 288 296 298 300 306 309 309 313 316 317
315 209 89 60 228 241 177 127 130 139 132 124 120 122 122 133 145 163 180 199 214 220 219 219 224 239 254 263 269 273 268 268 274 282 289 291 292 297 299 305 310 312 314 315
197 123 169 292 312 348 213 149 134 131 139 141 144 147 153 173 188 210 231 243 248 248 244 245 250 256 264 269 276 281 270 269 274 281 286 286 290 294 301 305 306 308 309 312
185 180 144 199 194 164 177 181 170 160 163 177 189 204 232 239 237 253 264 263 259 259 258 260 264 266 275 277 281 280 273 274 275 278 282 286 291 296 300 301 303 305 309 312
Height
1497 1497 1492 1497 1504 1505 1508 1517 1520 1523 1523 1524 1527 1524 1521 1524 1527 1526 1528 1531 1535 1539 1543 1546 1551 1555 1558 1559 1562 1564 1565 1567 1568 1570 1571 1573 1574 1575 1574 1574 1573 1572 1571 1570
1497 1488 1491 1496 1503 1509 1509 1512 1519 1524 1522 1523 1525 1524 1521 1521 1522 1523 1525 1529 1534 1536 1539 1543 1548 1552 1556 1557 1560 1562 1563 1565 1567 1568 1569 1570 1571 1571 1572 1571 1571 1570 1569 1568
1488 1488 1491 1494 1501 1505 1508 1511 1513 1521 1523 1522 1524 1526 1521 1519 1520 1522 1524 1528 1532 1535 1537 1541 1545 1549 1552 1556 1557 1559 1561 1562 1564 1566 1567 1567 1568 1568 1568 1569 1569 1568 1567 1566
1485 1487 1489 1491 1496 1500 1507 1505 1511 1518 1520 1525 1523 1531 1521 1518 1518 1520 1521 1523 1528 1532 1536 1538 1542 1546 1549 1552 1555 1557 1558 1560 1562 1562 1563 1565 1565 1565 1565 1566 1566 1567 1566 1566
1486 1485 1492 1491 1491 1497 1502 1503 1507 1514 1517 1519 1526 1529 1517 1517 1520 1519 1519 1521 1525 1530 1535 1537 1540 1544 1546 1550 1552 1555 1556 1558 1560 1561 1562 1563 1564 1564 1564 1566 1566 1566 1565 1564
1491 1490 1488 1486 1491 1494 1499 1506 1515 1519 1519 1521 1515 1519 1520 1517 1513 1516 1519 1520 1523 1528 1532 1536 1540 1543 1545 1549 1552 1554 1555 1558 1559 1560 1561 1562 1563 1563 1564 1565 1564 1565 1564 1563
1493 1488 1482 1482 1492 1496 1495 1503 1523 1524 1522 1515 1527 1519 1511 1510 1510 1509 1515 1520 1522 1527 1531 1534 1538 1546 1544 1547 1553 1556 1554 1557 1558 1558 1560 1562 1563 1561 1563 1563 1563 1564 1562 1562
1487 1486 1482 1479 1480 1484 1494 1495 1506 1508 1513 1522 1527 1515 1508 1511 1510 1509 1514 1521 1527 1530 1531 1533 1535 1546 1550 1544 1548 1565 1556 1557 1557 1557 1560 1561 1563 1562 1562 1562 1561 1561 1560 1560
1485 1484 1481 1479 1479 1483 1497 1496 1503 1514 1534 1521 1519 1517 1512 1514 1514 1512 1513 1518 1525 1535 1530 1533 1537 1543 1553 1543 1552 1563 1561 1559 1558 1558 1560 1559 1561 1561 1561 1561 1562 1561 1559 1558
1484 1482 1482 1480 1482 1486 1489 1499 1510 1513 1522 1523 1520 1517 1510 1515 1513 1512 1514 1517 1526 1534 1534 1535 1541 1541 1555 1550 1558 1560 1560 1560 1558 1558 1558 1559 1561 1561 1561 1560 1560 1559 1557 1556
1485 1487 1486 1484 1484 1485 1494 1497 1504 1505 1512 1513 1519 1510 1505 1508 1508 1510 1513 1519 1525 1530 1535 1538 1540 1550 1550 1555 1558 1557 1556 1556 1557 1557 1558 1558 1559 1562 1559 1559 1559 1555 1554 1552
1482 1488 1483 1488 1487 1488 1485 1492 1494 1498 1511 1517 1512 1507 1502 1504 1506 1509 1514 1519 1524 1528 1532 1537 1542 1547 1549 1552 1554 1554 1554 1554 1555 1556 1557 1557 1559 1559 1559 1557 1554 1553 1551 1549
1478 1485 1483 1487 1489 1487 1486 1490 1493 1499 1505 1516 1512 1506 1501 1501 1505 1507 1510 1514 1518 1522 1529 1534 1539 1543 1546 1549 1552 1552 1551 1552 1553 1554 1556 1556 1557 1558 1556 1554 1552 1551 1548 1546
1470 1485 1485 1483 1481 1483 1487 1490 1493 1493 1505 1511 1511 1499 1501 1500 1501 1504 1508 1512 1515 1519 1525 1532 1538 1541 1544 1546 1548 1548 1548 1549 1550 1551 1554 1555 1556 1555 1554 1553 1549 1547 1545 1543
1471 1487 1494 1493 1488 1484 1487 1489 1493 1496 1500 1504 1500 1502 1495 1497 1497 1500 1503 1508 1513 1518 1523 1529 1533 1538 1540 1542 1544 1545 1547 1547 1549 1551 1552 1552 1552 1551 1550 1548 1546 1545 1543 1540
1474 1485 1487 1496 1494 1487 1492 1493 1495 1500 1504 1507 1503 1498 1494 1495 1495 1502 1505 1508 1514 1518 1521 1526 1532 1535 1537 1539 1541 1543 1545 1547 1549 1549 1549 1549 1549 1548 1546 1545 1543 1541 1538 1536
1468 1477 1486 1495 1500 1490 1494 1490 1493 1496 1498 1498 1500 1492 1492 1495 1496 1497 1502 1506 1511 1515 1520 1524 1528 1532 1534 1537 1540 1541 1543 1544 1546 1547 1546 1546 1545 1544 1542 1540 1538 1536 1534 1532
1469 1483 1486 1498 1499 1492 1487 1489 1492 1494 1491 1490 1489 1490 1491 1494 1496 1499 1502 1507 1512 1517 1520 1523 1525 1529 1532 1534 1537 1539 1540 1542 1543 1543 1542 1541 1541 1539 1538 1535 1534 1533 1532 1528
1462 1476 1504 1502 1513 1500 1489 1493 1494 1492 1491 1487 1487 1491 1494 1497 1500 1503 1505 1508 1511 1515 1518 1520 1524 1526 1528 1531 1534 1536 1537 1539 1540 1540 1539 1538 1536 1535 1534 1532 1530 1529 1526 1522
1466 1467 1479 1522 1503 1504 1480 1483 1483 1484 1496 1482 1484 1488 1493 1499 1507 1504 1505 1507 1510 1513 1515 1517 1520 1523 1526 1529 1531 1534 1536 1535 1535 1535 1534 1533 1533 1531 1529 1527 1526 1523 1521 1519
1480 1492 1501 1526 1517 1500 1481 1483 1481 1499 1492 1481 1484 1487 1493 1498 1500 1501 1503 1506 1508 1511 1513 1516 1519 1521 1523 1526 1528 1530 1531 1531 1531 1529 1529 1528 1527 1526 1523 1522 1520 1519 1517 1515
1481 1492 1508 1528 1514 1487 1480 1484 1484 1485 1483 1482 1487 1490 1492 1495 1498 1501 1503 1506 1509 1511 1513 1515 1518 1520 1522 1524 1525 1526 1526 1526 1525 1524 1524 1524 1521 1520 1518 1516 1515 1514 1513 1509
1487 1486 1488 1485 1488 1482 1483 1483 1482 1483 1484 1486 1487 1492 1495 1497 1500 1503 1505 1508 1510 1512 1514 1515 1517 1519 1520 1521 1521 1521 1521 1520 1520 1520 1518 1517 1517 1515 1512 1512 1511 1509 1506 1504
1483 1482 1484 1483 1480 1480 1482 1482 1482 1483 1486 1487 1489 1494 1497 1500 1502 1504 1506 1507 1509 1510 1511 1513 1515 1515 1516 1517 1516 1515 1515 1515 1514 1513 1512 1512 1511 1509 1508 1507 1504 1502 1501 1498
1482 1482 1482 1485 1480 1480 1480 1481 1482 1485 1488 1490 1494 1497 1499 1500 1502 1503 1505 1506 1506 1508 1508 1508 1509 1510 1511 1511 1511 1510 1509 1508 1508 1508 1506 1506 1506 1504 1503 1500 1499 1497 1495 1493
1478 1478 1483 1484 1479 1479 1479 1482 1485 1486 1490 1494 1496 1497 1497 1499 1500 1501 1502 1503 1503 1503 1503 1503 1504 1504 1505 1505 1505 1504 1503 1503 1502 1502 1501 1500 1499 1497 1496 1495 1493 1492 1490 1488